Regional Weather Roundup
Issued by NWS Newport/Morehead, NC

Current Version | Previous Version | Graphics & Text | Print | Product List | Glossary Off
Versions: 1 2 3 4 5 6 7 8 9 10 11 12 13 14 15 16 17 18 19 20 21 22 23 24 25 26 27 28 29 30 31 32 33 34 35 36 37 38 39 40 41 42 43 44 45 46 47 48 49 50

000
ASUS42 KMHX 272122
RWRMHX
WEATHER ROUNDUP FOR EASTERN NORTH CAROLINA
NATIONAL WEATHER SERVICE NEWPORT/MOREHEAD CITY NC
500 PM EDT SUN JUL 27 2014

NOTE: "FAIR" INDICATES FEW OR NO CLOUDS BELOW 12,000 FEET
WITH NO SIGNIFICANT WEATHER AND/OR OBSTRUCTIONS TO VISIBILITY

NCZ015>017-031-032-045>047-102-103-272200-
NORTH COAST

CITY           SKY/WX    TMP DP  RH WIND       PRES   REMARKS
EDENTON        PTSUNNY   83  70  65 W9        29.83S
ELIZABETH CITY CLOUDY    82  74  76 SW13      29.82S
KITTY HAWK     CLOUDY    81  72  73 SW8       29.81F
MANTEO         NOT AVBL

$$

NCZ045>047-081-094-103-104-272200-
CENTRAL COAST

CITY           SKY/WX    TMP DP  RH WIND       PRES   REMARKS
FRISCO         CLOUDY    83  75  77 W9G22     29.86F
SWANQUARTER      N/A     82 N/A N/A W12G20    29.82S

$$

NCZ095-097-098-100-101-272200-
SOUTHERN COAST

CITY           SKY/WX    TMP DP  RH WIND       PRES   REMARKS
BEAUFORT       PTSUNNY   87  77  72 SW13      29.87S
CEDAR ISLAND     N/A     90 N/A N/A S3        29.91S
JACKSONVILLE   MOSUNNY   89  74  60 SW8       29.86F
NEWPORT        NOT AVBL
PINEY ISLAND   CLOUDY    86  73  65 SW6       29.87S
WILMINGTON     MOSUNNY   93  73  52 W10       29.88F HX 102


$$

NCZ011>013-027>030-043-044-078>080-089-090>093-098-272200-
COASTAL PLAIN

CITY           SKY/WX    TMP DP  RH WIND       PRES   REMARKS
AHOSKIE        MOSUNNY   83  73  72 CALM      29.83S
CLINTON        MOSUNNY   91  74  57 SW5       29.87F HX 100
ELIZABETHTOWN  MOSUNNY   93  70  48 SW7       29.88F
GOLDSBORO      MOSUNNY   87  75  68 SW13      29.84F
GREENVILLE     MOSUNNY   82  73  74 W9G17     29.88F
HAVELOCK       PTSUNNY   87  74  64 SW7       29.87F
KENANSVILLE    MOSUNNY   87  73  61 W6        29.88F
KINSTON        SUNNY     88  72  58 SW8       29.87F
NEW BERN       PTSUNNY   89  73  59 W7        29.87F
RICHLANDS      MOSUNNY   91  73  55 SW9       29.87S HX 100
ROANOKE RAPIDS NOT AVBL
ROCKY MOUNT    MOSUNNY   83  72  69 SW8       29.85F
WASHINGTON     MOSUNNY   82  71  68 W9        29.86F
WHITEVILLE     SUNNY     92  73  52 SW7       29.88F HX 101

$$

AMZ130-135-150-152-154-156-158-170-250-252-270-ANZ085-086-088-633-658-670-272200-
MARINE OBSERVATIONS

STATION/POSITION TIME  TEMP    WIND        PRES    WAVE   SWELL
                       AIR SEA DIR/SP/G            HT/PER HT/PER
                 (UTC) (F)     (DEG/KT/KT) (MB)    (FT/S) (FT/S)
CHESAPEAKE LIGHT NOT AVBL
BUOY 44014       2100   80 79  190/  6/  8 1009.1    3/ 4   2/ 4
DUCK             2100   81 70  220/  8/ 13 1008.8
2E DUCK          2100                        N/A     1/ 7
OREGON INLET     2100   83 82  240/ 15/ 18 1010.2
BUOY 44095       2100      79                N/A     3/ 6
20E OREGON INLET NOT AVBL
HATTERAS CG      2100   83 83  270/ 10/ 12 1011.6
DIAMOND BUOY     2100          VRB 14/ 16  1010.8    3/ 4   2/ 8
CAPE LOOKOUT     2100   84     230/ 11/ 14 1011.5
BEAUFORT LAB     2100   86 83  230/  6/ 12 1011.3
30 SE NEW RIVER  2100   83 82  230/ 14/ 17 1012.4    3/ 5   2/ 8
5 SE WRIGHTSVILL 2100   82 83  210/ 14/ 16   N/A
BUOY 41002       2016   82 81  240/ 14/ 17 1015.8    4/ 8   3/ 8
BUOY 41004       2100   84 84  210/ 14/ 17 1012.7    3/ 5   2/ 9

$$


USA.gov is the U.S. government's official web portal to all federal, state and local government web resources and services.